Time,TemperatureF,DewpointF,PressureIn,WindDirection,WindDirectionDegrees,WindSpeedMPH,WindSpeedGustMPH,Humidity,HourlyPrecipIn,Conditions,Clouds,dailyrainin,SoftwareType,DateUTC
2013-06-05 00:04:00,70.7,33.1,29.68,NNE,27,3.0,3.0,25,0.00,,,0.00,Wunderground v.1.15,2013-06-05 07:04:00,
2013-06-05 00:09:00,70.8,33.2,29.68,NNE,26,3.0,4.0,25,0.00,,,0.00,Wunderground v.1.15,2013-06-05 07:09:00,
2013-06-05 00:14:00,70.7,33.1,29.68,North,10,2.0,4.0,25,0.00,,,0.00,Wunderground v.1.15,2013-06-05 07:14:00,
2013-06-05 00:20:00,70.6,34.0,29.68,NNE,16,3.0,3.0,26,0.00,,,0.00,Wunderground v.1.15,2013-06-05 07:20:00,
2013-06-05 00:25:00,70.6,34.0,29.68,NNE,22,3.0,3.0,26,0.00,,,0.00,Wunderground v.1.15,2013-06-05 07:25:00,
2013-06-05 00:30:00,70.6,34.0,29.68,NNE,25,3.0,3.0,26,0.00,,,0.00,Wunderground v.1.15,2013-06-05 07:30:00,
2013-06-05 00:36:00,70.4,33.9,29.68,NNE,22,2.0,3.0,26,0.00,,,0.00,Wunderground v.1.15,2013-06-05 07:36:00,
2013-06-05 00:41:00,70.0,33.5,29.67,NNE,25,2.0,2.0,26,0.00,,,0.00,Wunderground v.1.15,2013-06-05 07:41:00,
2013-06-05 00:47:00,69.8,33.3,29.67,NE,41,3.0,3.0,26,0.00,,,0.00,Wunderground v.1.15,2013-06-05 07:47:00,
2013-06-05 00:52:00,69.8,33.3,29.67,NNE,15,2.0,4.0,26,0.00,,,0.00,Wunderground v.1.15,2013-06-05 07:52:00,
2013-06-05 00:58:00,69.6,34.1,29.67,NNE,20,2.0,4.0,27,0.00,,,0.00,Wunderground v.1.15,2013-06-05 07:58:00,
2013-06-05 01:03:00,69.6,34.1,29.67,NNE,20,3.0,3.0,27,0.00,,,0.00,Wunderground v.1.15,2013-06-05 08:03:00,
2013-06-05 01:08:00,69.6,34.1,29.67,NNE,27,3.0,3.0,27,0.00,,,0.00,Wunderground v.1.15,2013-06-05 08:08:00,
2013-06-05 01:14:00,69.3,33.9,29.67,NE,42,2.0,3.0,27,0.00,,,0.00,Wunderground v.1.15,2013-06-05 08:14:00,
2013-06-05 01:20:00,68.8,33.4,29.67,NNE,33,3.0,3.0,27,0.00,,,0.00,Wunderground v.1.15,2013-06-05 08:20:00,
2013-06-05 01:25:00,68.4,34.0,29.67,NNE,33,2.0,3.0,28,0.00,,,0.00,Wunderground v.1.15,2013-06-05 08:25:00,
2013-06-05 01:30:00,68.2,33.8,29.67,NE,34,3.0,3.0,28,0.00,,,0.00,Wunderground v.1.15,2013-06-05 08:30:00,
2013-06-05 01:36:00,68.1,33.7,29.67,NNE,27,3.0,3.0,28,0.00,,,0.00,Wunderground v.1.15,2013-06-05 08:36:00,
2013-06-05 01:41:00,68.2,33.8,29.67,NNE,32,3.0,3.0,28,0.00,,,0.00,Wunderground v.1.15,2013-06-05 08:41:00,
2013-06-05 01:46:00,68.5,33.2,29.66,NNE,13,2.0,3.0,27,0.00,,,0.00,Wunderground v.1.15,2013-06-05 08:46:00,
2013-06-05 01:51:00,68.3,33.0,29.66,North,11,2.0,2.0,27,0.00,,,0.00,Wunderground v.1.15,2013-06-05 08:51:00,
2013-06-05 01:57:00,68.0,33.7,29.66,NNE,15,3.0,3.0,28,0.00,,,0.00,Wunderground v.1.15,2013-06-05 08:57:00,
2013-06-05 02:02:00,68.2,33.8,29.66,North,352,1.0,3.0,28,0.00,,,0.00,Wunderground v.1.15,2013-06-05 09:02:00,
2013-06-05 02:07:00,68.4,33.1,29.66,NNW,346,0.0,3.0,27,0.00,,,0.00,Wunderground v.1.15,2013-06-05 09:07:00,
2013-06-05 02:12:00,68.6,33.3,29.66,NNW,341,2.0,2.0,27,0.00,,,0.00,Wunderground v.1.15,2013-06-05 09:12:00,
2013-06-05 02:17:00,69.3,32.9,29.66,NW,314,2.0,4.0,26,0.00,,,0.00,Wunderground v.1.15,2013-06-05 09:17:00,
2013-06-05 02:22:00,69.8,33.3,29.66,NW,311,2.0,4.0,26,0.00,,,0.00,Wunderground v.1.15,2013-06-05 09:22:00,
2013-06-05 02:27:00,70.0,33.5,29.66,NW,317,1.0,4.0,26,0.00,,,0.00,Wunderground v.1.15,2013-06-05 09:27:00,
2013-06-05 02:32:00,69.6,33.2,29.66,NW,320,2.0,6.0,26,0.00,,,0.00,Wunderground v.1.15,2013-06-05 09:32:00,
2013-06-05 02:37:00,69.8,32.4,29.67,WNW,303,2.0,7.0,25,0.00,,,0.00,Wunderground v.1.15,2013-06-05 09:37:00,
2013-06-05 02:42:00,69.8,32.4,29.67,NW,319,2.0,4.0,25,0.00,,,0.00,Wunderground v.1.15,2013-06-05 09:42:00,
2013-06-05 02:47:00,69.5,32.1,29.67,NW,325,3.0,4.0,25,0.00,,,0.00,Wunderground v.1.15,2013-06-05 09:47:00,
2013-06-05 02:52:00,69.0,31.7,29.67,NW,316,2.0,3.0,25,0.00,,,0.00,Wunderground v.1.15,2013-06-05 09:52:00,
2013-06-05 02:57:00,68.6,32.3,29.67,NNW,340,2.0,4.0,26,0.00,,,0.00,Wunderground v.1.15,2013-06-05 09:57:00,
2013-06-05 03:02:00,68.1,31.9,29.67,NNW,348,1.0,2.0,26,0.00,,,0.00,Wunderground v.1.15,2013-06-05 10:02:00,
2013-06-05 03:07:00,67.3,32.1,29.67,North,7,2.0,3.0,27,0.00,,,0.00,Wunderground v.1.15,2013-06-05 10:07:00,
2013-06-05 03:12:00,66.6,32.5,29.67,NNE,27,3.0,4.0,28,0.00,,,0.00,Wunderground v.1.15,2013-06-05 10:12:00,
2013-06-05 03:17:00,65.9,31.8,29.67,NE,47,2.0,4.0,28,0.00,,,0.00,Wunderground v.1.15,2013-06-05 10:17:00,
2013-06-05 03:22:00,65.3,32.2,29.67,NE,37,2.0,3.0,29,0.00,,,0.00,Wunderground v.1.15,2013-06-05 10:22:00,
2013-06-05 03:27:00,65.2,32.1,29.68,NE,36,2.0,3.0,29,0.00,,,0.00,Wunderground v.1.15,2013-06-05 10:27:00,
2013-06-05 03:32:00,65.2,32.1,29.67,NE,36,1.0,2.0,29,0.00,,,0.00,Wunderground v.1.15,2013-06-05 10:32:00,
2013-06-05 03:37:00,65.2,32.1,29.68,NE,46,2.0,2.0,29,0.00,,,0.00,Wunderground v.1.15,2013-06-05 10:37:00,
2013-06-05 03:42:00,65.0,31.9,29.68,NE,36,2.0,3.0,29,0.00,,,0.00,Wunderground v.1.15,2013-06-05 10:42:00,
2013-06-05 03:47:00,65.0,31.9,29.68,NE,34,0.0,3.0,29,0.00,,,0.00,Wunderground v.1.15,2013-06-05 10:47:00,
2013-06-05 03:52:00,65.3,32.2,29.68,NE,34,2.0,3.0,29,0.00,,,0.00,Wunderground v.1.15,2013-06-05 10:52:00,
2013-06-05 03:57:00,65.6,32.5,29.68,NNE,21,2.0,3.0,29,0.00,,,0.00,Wunderground v.1.15,2013-06-05 10:57:00,
2013-06-05 04:02:00,65.6,32.5,29.68,NNE,22,2.0,2.0,29,0.00,,,0.00,Wunderground v.1.15,2013-06-05 11:02:00,
2013-06-05 04:07:00,65.4,32.3,29.68,NNE,19,1.0,2.0,29,0.00,,,0.00,Wunderground v.1.15,2013-06-05 11:07:00,
2013-06-05 04:12:00,65.4,32.3,29.68,NNE,27,1.0,2.0,29,0.00,,,0.00,Wunderground v.1.15,2013-06-05 11:12:00,
2013-06-05 04:17:00,65.3,32.2,29.68,NNE,29,2.0,3.0,29,0.00,,,0.00,Wunderground v.1.15,2013-06-05 11:17:00,
2013-06-05 04:22:00,65.3,32.2,29.68,NNE,20,1.0,2.0,29,0.00,,,0.00,Wunderground v.1.15,2013-06-05 11:22:00,
2013-06-05 04:27:00,65.2,32.1,29.68,NNE,28,0.0,3.0,29,0.00,,,0.00,Wunderground v.1.15,2013-06-05 11:27:00,
2013-06-05 04:32:00,65.1,32.0,29.68,NNE,32,0.0,1.0,29,0.00,,,0.00,Wunderground v.1.15,2013-06-05 11:32:00,
2013-06-05 04:37:00,65.0,31.9,29.68,NE,39,3.0,3.0,29,0.00,,,0.00,Wunderground v.1.15,2013-06-05 11:37:00,
2013-06-05 04:42:00,65.0,31.9,29.68,NE,43,2.0,2.0,29,0.00,,,0.00,Wunderground v.1.15,2013-06-05 11:42:00,
2013-06-05 04:47:00,64.5,31.5,29.68,NE,42,2.0,2.0,29,0.00,,,0.00,Wunderground v.1.15,2013-06-05 11:47:00,
2013-06-05 04:52:00,63.6,30.7,29.68,ENE,60,0.0,1.0,29,0.00,,,0.00,Wunderground v.1.15,2013-06-05 11:52:00,
2013-06-05 04:57:00,62.6,30.7,29.69,ENE,72,2.0,3.0,30,0.00,,,0.00,Wunderground v.1.15,2013-06-05 11:57:00,
2013-06-05 05:02:00,61.7,30.7,29.69,ENE,66,2.0,2.0,31,0.00,,,0.00,Wunderground v.1.15,2013-06-05 12:02:00,
2013-06-05 05:07:00,61.5,31.3,29.69,ENE,65,0.0,3.0,32,0.00,,,0.00,Wunderground v.1.15,2013-06-05 12:07:00,
2013-06-05 05:12:00,61.9,30.9,29.69,ENE,65,1.0,1.0,31,0.00,,,0.00,Wunderground v.1.15,2013-06-05 12:12:00,
2013-06-05 05:17:00,62.1,31.1,29.70,ENE,65,2.0,2.0,31,0.00,,,0.00,Wunderground v.1.15,2013-06-05 12:17:00,
2013-06-05 05:22:00,62.1,31.1,29.70,ENE,63,0.0,1.0,31,0.00,,,0.00,Wunderground v.1.15,2013-06-05 12:22:00,
2013-06-05 05:27:00,62.2,31.2,29.70,ENE,65,0.0,1.0,31,0.00,,,0.00,Wunderground v.1.15,2013-06-05 12:27:00,
2013-06-05 05:32:00,62.1,31.1,29.70,ENE,65,0.0,0.0,31,0.00,,,0.00,Wunderground v.1.15,2013-06-05 12:32:00,
2013-06-05 05:37:00,62.3,31.3,29.70,ENE,65,0.0,0.0,31,0.00,,,0.00,Wunderground v.1.15,2013-06-05 12:37:00,
2013-06-05 05:42:00,63.2,31.2,29.70,ENE,65,0.0,0.0,30,0.00,,,0.00,Wunderground v.1.15,2013-06-05 12:42:00,
2013-06-05 05:47:00,64.1,31.2,29.70,ENE,65,0.0,0.0,29,0.00,,,0.00,Wunderground v.1.15,2013-06-05 12:47:00,
2013-06-05 05:52:00,64.9,31.9,29.70,ENE,63,0.0,0.0,29,0.00,,,0.00,Wunderground v.1.15,2013-06-05 12:52:00,
2013-06-05 05:57:00,66.0,31.9,29.71,ENE,65,0.0,0.0,28,0.00,,,0.00,Wunderground v.1.15,2013-06-05 12:57:00,
2013-06-05 06:02:00,67.2,33.0,29.71,ENE,65,0.0,0.0,28,0.00,,,0.00,Wunderground v.1.15,2013-06-05 13:02:00,
2013-06-05 06:07:00,67.6,32.4,29.71,East,80,0.0,0.0,27,0.00,,,0.00,Wunderground v.1.15,2013-06-05 13:07:00,
2013-06-05 06:13:00,67.5,32.3,29.71,ENE,63,1.0,2.0,27,0.00,,,0.00,Wunderground v.1.15,2013-06-05 13:13:00,
2013-06-05 06:18:00,68.2,32.9,29.71,ENE,66,0.0,2.0,27,0.00,,,0.00,Wunderground v.1.15,2013-06-05 13:18:00,
2013-06-05 06:23:00,68.9,32.6,29.71,ENE,60,0.0,0.0,26,0.00,,,0.00,Wunderground v.1.15,2013-06-05 13:23:00,
2013-06-05 06:28:00,69.7,33.3,29.70,ENE,60,0.0,0.0,26,0.00,,,0.00,Wunderground v.1.15,2013-06-05 13:28:00,
2013-06-05 06:33:00,70.9,33.3,29.70,ENE,68,0.0,0.0,25,0.00,,,0.00,Wunderground v.1.15,2013-06-05 13:33:00,
2013-06-05 06:38:00,72.3,33.5,29.71,ENE,68,0.0,0.0,24,0.00,,,0.00,Wunderground v.1.15,2013-06-05 13:38:00,
2013-06-05 06:43:00,73.2,33.2,29.71,ENE,74,0.0,0.0,23,0.00,,,0.00,Wunderground v.1.15,2013-06-05 13:43:00,
2013-06-05 06:48:00,74.1,32.8,29.71,ENE,69,0.0,0.0,22,0.00,,,0.00,Wunderground v.1.15,2013-06-05 13:48:00,
2013-06-05 06:53:00,75.1,32.5,29.71,ENE,69,0.0,0.0,21,0.00,,,0.00,Wunderground v.1.15,2013-06-05 13:53:00,
2013-06-05 06:58:00,76.4,32.3,29.71,ENE,68,0.0,0.0,20,0.00,,,0.00,Wunderground v.1.15,2013-06-05 13:58:00,
2013-06-05 07:03:00,77.5,33.2,29.71,NE,39,0.0,0.0,20,0.00,,,0.00,Wunderground v.1.15,2013-06-05 14:03:00,
2013-06-05 07:08:00,77.3,31.8,29.71,West,276,1.0,3.0,19,0.00,,,0.00,Wunderground v.1.15,2013-06-05 14:08:00,
2013-06-05 07:13:00,77.1,32.9,29.71,WSW,245,0.0,1.0,20,0.00,,,0.00,Wunderground v.1.15,2013-06-05 14:13:00,
2013-06-05 07:18:00,77.5,32.0,29.71,West,279,0.0,1.0,19,0.00,,,0.00,Wunderground v.1.15,2013-06-05 14:18:00,
2013-06-05 07:23:00,77.8,33.5,29.71,West,264,0.0,1.0,20,0.00,,,0.00,Wunderground v.1.15,2013-06-05 14:23:00,
2013-06-05 07:28:00,78.4,32.7,29.71,NW,315,0.0,3.0,19,0.00,,,0.00,Wunderground v.1.15,2013-06-05 14:28:00,
2013-06-05 07:33:00,78.5,32.8,29.71,WNW,285,0.0,3.0,19,0.00,,,0.00,Wunderground v.1.15,2013-06-05 14:33:00,
2013-06-05 07:38:00,78.8,33.0,29.71,West,272,1.0,3.0,19,0.00,,,0.00,Wunderground v.1.15,2013-06-05 14:38:00,
2013-06-05 07:43:00,79.2,33.4,29.71,North,360,0.0,5.0,19,0.00,,,0.00,Wunderground v.1.15,2013-06-05 14:43:00,
2013-06-05 07:48:00,80.0,32.7,29.71,NNE,22,0.0,5.0,18,0.00,,,0.00,Wunderground v.1.15,2013-06-05 14:48:00,
2013-06-05 07:53:00,80.3,32.9,29.71,NW,318,1.0,3.0,18,0.00,,,0.00,Wunderground v.1.15,2013-06-05 14:53:00,
2013-06-05 07:58:00,80.6,33.2,29.71,SW,225,0.0,4.0,18,0.00,,,0.00,Wunderground v.1.15,2013-06-05 14:58:00,
2013-06-05 08:03:00,80.4,33.0,29.72,SSW,200,2.0,2.0,18,0.00,,,0.00,Wunderground v.1.15,2013-06-05 15:03:00,
2013-06-05 08:08:00,80.9,32.0,29.71,SW,217,0.0,4.0,17,0.00,,,0.00,Wunderground v.1.15,2013-06-05 15:08:00,
2013-06-05 08:14:00,81.2,32.2,29.72,WNW,295,1.0,3.0,17,0.00,,,0.00,Wunderground v.1.15,2013-06-05 15:14:00,
2013-06-05 08:19:00,81.0,33.5,29.71,West,271,2.0,5.0,18,0.00,,,0.00,Wunderground v.1.15,2013-06-05 15:19:00,
2013-06-05 08:24:00,80.9,33.4,29.72,WNW,298,1.0,3.0,18,0.00,,,0.00,Wunderground v.1.15,2013-06-05 15:24:00,
2013-06-05 08:29:00,81.1,34.9,29.71,NW,313,4.0,5.0,19,0.00,,,0.00,Wunderground v.1.15,2013-06-05 15:29:00,
2013-06-05 08:34:00,81.0,33.5,29.71,NNE,32,0.0,4.0,18,0.00,,,0.00,Wunderground v.1.15,2013-06-05 15:34:00,
2013-06-05 08:39:00,81.2,33.6,29.71,WSW,252,1.0,4.0,18,0.00,,,0.00,Wunderground v.1.15,2013-06-05 15:39:00,
2013-06-05 08:44:00,81.5,33.9,29.71,North,351,0.0,2.0,18,0.00,,,0.00,Wunderground v.1.15,2013-06-05 15:44:00,
2013-06-05 08:49:00,82.5,33.3,29.71,SSW,198,1.0,3.0,17,0.00,,,0.00,Wunderground v.1.15,2013-06-05 15:49:00,
2013-06-05 08:54:00,83.5,34.1,29.71,SSE,163,3.0,5.0,17,0.00,,,0.00,Wunderground v.1.15,2013-06-05 15:54:00,
2013-06-05 08:59:00,83.2,33.8,29.71,SW,219,2.0,7.0,17,0.00,,,0.00,Wunderground v.1.15,2013-06-05 15:59:00,
2013-06-05 09:04:00,83.0,32.2,29.71,SW,226,1.0,6.0,16,0.00,,,0.00,Wunderground v.1.15,2013-06-05 16:04:00,
2013-06-05 09:09:00,82.8,32.0,29.72,SSW,206,2.0,6.0,16,0.00,,,0.00,Wunderground v.1.15,2013-06-05 16:09:00,
2013-06-05 09:14:00,83.2,32.3,29.71,SE,143,1.0,3.0,16,0.00,,,0.00,Wunderground v.1.15,2013-06-05 16:14:00,
2013-06-05 09:19:00,84.1,31.4,29.72,SSW,195,4.0,6.0,15,0.00,,,0.00,Wunderground v.1.15,2013-06-05 16:19:00,
2013-06-05 09:24:00,84.2,28.0,29.72,SSW,205,2.0,4.0,13,0.00,,,0.00,Wunderground v.1.15,2013-06-05 16:24:00,
2013-06-05 09:29:00,84.5,30.1,29.72,SE,141,2.0,7.0,14,0.00,,,0.00,Wunderground v.1.15,2013-06-05 16:29:00,
2013-06-05 09:34:00,84.4,28.2,29.72,SSW,205,7.0,8.0,13,0.00,,,0.00,Wunderground v.1.15,2013-06-05 16:34:00,
2013-06-05 09:39:00,84.8,28.5,29.71,SW,214,4.0,9.0,13,0.00,,,0.00,Wunderground v.1.15,2013-06-05 16:39:00,
2013-06-05 09:44:00,85.3,28.9,29.72,WNW,293,0.0,8.0,13,0.00,,,0.00,Wunderground v.1.15,2013-06-05 16:44:00,
2013-06-05 09:49:00,85.4,27.0,29.71,SW,225,3.0,10.0,12,0.00,,,0.00,Wunderground v.1.15,2013-06-05 16:49:00,
2013-06-05 09:54:00,85.4,24.9,29.72,SW,214,0.0,11.0,11,0.00,,,0.00,Wunderground v.1.15,2013-06-05 16:54:00,
2013-06-05 09:59:00,85.8,27.3,29.72,SSE,155,0.0,11.0,12,0.00,,,0.00,Wunderground v.1.15,2013-06-05 16:59:00,
2013-06-05 10:04:00,85.6,25.0,29.71,WSW,245,0.0,7.0,11,0.00,,,0.00,Wunderground v.1.15,2013-06-05 17:04:00,
2013-06-05 10:09:00,85.9,25.3,29.71,SSE,150,2.0,7.0,11,0.00,,,0.00,Wunderground v.1.15,2013-06-05 17:09:00,
2013-06-05 10:14:00,86.5,23.4,29.71,South,181,3.0,10.0,10,0.00,,,0.00,Wunderground v.1.15,2013-06-05 17:14:00,
2013-06-05 10:19:00,85.9,25.3,29.71,SW,221,1.0,10.0,11,0.00,,,0.00,Wunderground v.1.15,2013-06-05 17:19:00,
2013-06-05 10:24:00,86.2,23.2,29.71,WSW,244,6.0,10.0,10,0.00,,,0.00,Wunderground v.1.15,2013-06-05 17:24:00,
2013-06-05 10:29:00,86.6,21.0,29.71,SSW,208,2.0,10.0,9,0.00,,,0.00,Wunderground v.1.15,2013-06-05 17:29:00,
2013-06-05 10:34:00,86.9,21.2,29.71,NNW,338,3.0,10.0,9,0.00,,,0.00,Wunderground v.1.15,2013-06-05 17:34:00,
2013-06-05 10:39:00,87.1,21.4,29.71,WSW,256,8.0,12.0,9,0.00,,,0.00,Wunderground v.1.15,2013-06-05 17:39:00,
2013-06-05 10:44:00,87.0,21.3,29.71,SSW,205,4.0,10.0,9,0.00,,,0.00,Wunderground v.1.15,2013-06-05 17:44:00,
2013-06-05 10:49:00,86.6,21.0,29.71,SW,226,1.0,10.0,9,0.00,,,0.00,Wunderground v.1.15,2013-06-05 17:49:00,
2013-06-05 10:54:00,86.5,20.9,29.70,NE,46,2.0,5.0,9,0.00,,,0.00,Wunderground v.1.15,2013-06-05 17:54:00,
2013-06-05 10:59:00,86.5,20.9,29.70,WNW,295,0.0,8.0,9,0.00,,,0.00,Wunderground v.1.15,2013-06-05 17:59:00,
2013-06-05 11:04:00,87.2,21.5,29.70,SW,219,1.0,3.0,9,0.00,,,0.00,Wunderground v.1.15,2013-06-05 18:04:00,
2013-06-05 11:09:00,88.3,22.3,29.70,WSW,248,2.0,8.0,9,0.00,,,0.00,Wunderground v.1.15,2013-06-05 18:09:00,
2013-06-05 11:14:00,88.5,19.7,29.70,SSW,208,6.0,12.0,8,0.00,,,0.00,Wunderground v.1.15,2013-06-05 18:14:00,
2013-06-05 11:19:00,88.7,19.8,29.69,SW,224,3.0,12.0,8,0.00,,,0.00,Wunderground v.1.15,2013-06-05 18:19:00,
2013-06-05 11:24:00,88.5,19.7,29.69,North,5,2.0,5.0,8,0.00,,,0.00,Wunderground v.1.15,2013-06-05 18:24:00,
2013-06-05 11:29:00,89.3,20.3,29.69,South,172,3.0,11.0,8,0.00,,,0.00,Wunderground v.1.15,2013-06-05 18:29:00,
2013-06-05 11:34:00,89.4,20.3,29.69,SSW,205,4.0,10.0,8,0.00,,,0.00,Wunderground v.1.15,2013-06-05 18:34:00,
2013-06-05 11:39:00,89.3,17.1,29.69,South,171,0.0,10.0,7,0.00,,,0.00,Wunderground v.1.15,2013-06-05 18:39:00,
2013-06-05 11:44:00,89.3,17.1,29.68,SSW,200,2.0,7.0,7,0.00,,,0.00,Wunderground v.1.15,2013-06-05 18:44:00,
2013-06-05 11:49:00,89.0,20.0,29.68,North,3,4.0,9.0,8,0.00,,,0.00,Wunderground v.1.15,2013-06-05 18:49:00,
2013-06-05 11:54:00,89.0,20.0,29.68,NNW,334,8.0,8.0,8,0.00,,,0.00,Wunderground v.1.15,2013-06-05 18:54:00,
2013-06-05 11:59:00,90.1,17.7,29.68,WNW,301,3.0,8.0,7,0.00,,,0.00,Wunderground v.1.15,2013-06-05 18:59:00,
2013-06-05 12:04:00,90.5,18.0,29.68,West,274,1.0,7.0,7,0.00,,,0.00,Wunderground v.1.15,2013-06-05 19:04:00,
2013-06-05 12:09:00,90.8,14.7,29.68,ESE,115,0.0,8.0,6,0.00,,,0.00,Wunderground v.1.15,2013-06-05 19:09:00,
2013-06-05 12:14:00,90.9,18.3,29.68,WSW,257,5.0,8.0,7,0.00,,,0.00,Wunderground v.1.15,2013-06-05 19:14:00,
2013-06-05 12:19:00,91.2,15.0,29.67,WSW,256,3.0,8.0,6,0.00,,,0.00,Wunderground v.1.15,2013-06-05 19:19:00,
2013-06-05 12:24:00,91.5,11.0,29.67,South,180,2.0,11.0,5,0.00,,,0.00,Wunderground v.1.15,2013-06-05 19:24:00,
2013-06-05 12:29:00,91.2,10.8,29.67,North,353,3.0,11.0,5,0.00,,,0.00,Wunderground v.1.15,2013-06-05 19:29:00,
2013-06-05 12:34:00,91.2,10.8,29.67,WNW,293,1.0,3.0,5,0.00,,,0.00,Wunderground v.1.15,2013-06-05 19:34:00,
2013-06-05 12:39:00,91.8,11.2,29.67,South,181,0.0,11.0,5,0.00,,,0.00,Wunderground v.1.15,2013-06-05 19:39:00,
2013-06-05 12:44:00,92.0,19.1,29.66,NW,323,5.0,9.0,7,0.00,,,0.00,Wunderground v.1.15,2013-06-05 19:44:00,
2013-06-05 12:49:00,91.5,15.2,29.66,NW,309,2.0,11.0,6,0.00,,,0.00,Wunderground v.1.15,2013-06-05 19:49:00,
2013-06-05 12:54:00,91.6,11.1,29.66,WSW,240,6.0,11.0,5,0.00,,,0.00,Wunderground v.1.15,2013-06-05 19:54:00,
2013-06-05 12:59:00,92.6,6.8,29.66,SW,222,9.0,12.0,4,0.00,,,0.00,Wunderground v.1.15,2013-06-05 19:59:00,
2013-06-05 13:04:00,92.0,6.4,29.65,South,190,8.0,14.0,4,0.00,,,0.00,Wunderground v.1.15,2013-06-05 20:04:00,
2013-06-05 13:09:00,92.3,15.7,29.65,WNW,295,8.0,15.0,6,0.00,,,0.00,Wunderground v.1.15,2013-06-05 20:09:00,
2013-06-05 13:14:00,92.2,19.3,29.65,NW,309,5.0,9.0,7,0.00,,,0.00,Wunderground v.1.15,2013-06-05 20:14:00,
2013-06-05 13:19:00,93.0,12.1,29.65,West,259,10.0,15.0,5,0.00,,,0.00,Wunderground v.1.15,2013-06-05 20:19:00,
2013-06-05 13:24:00,92.1,6.5,29.65,West,263,7.0,12.0,4,0.00,,,0.00,Wunderground v.1.15,2013-06-05 20:24:00,
2013-06-05 13:29:00,92.1,11.5,29.65,West,278,6.0,15.0,5,0.00,,,0.00,Wunderground v.1.15,2013-06-05 20:29:00,
2013-06-05 13:34:00,92.3,15.7,29.64,WSW,243,6.0,14.0,6,0.00,,,0.00,Wunderground v.1.15,2013-06-05 20:34:00,
2013-06-05 13:39:00,92.0,15.5,29.65,WSW,253,5.0,14.0,6,0.00,,,0.00,Wunderground v.1.15,2013-06-05 20:39:00,
2013-06-05 13:44:00,91.3,15.0,29.65,SW,218,5.0,11.0,6,0.00,,,0.00,Wunderground v.1.15,2013-06-05 20:44:00,
2013-06-05 13:49:00,91.1,14.9,29.64,West,278,4.0,11.0,6,0.00,,,0.00,Wunderground v.1.15,2013-06-05 20:49:00,
2013-06-05 13:54:00,91.1,14.9,29.64,ESE,115,1.0,8.0,6,0.00,,,0.00,Wunderground v.1.15,2013-06-05 20:54:00,
2013-06-05 13:59:00,91.9,15.5,29.64,NE,39,3.0,8.0,6,0.00,,,0.00,Wunderground v.1.15,2013-06-05 20:59:00,
2013-06-05 14:04:00,92.6,11.8,29.63,SW,225,10.0,15.0,5,0.00,,,0.00,Wunderground v.1.15,2013-06-05 21:04:00,
2013-06-05 14:09:00,92.1,11.5,29.63,WNW,297,6.0,15.0,5,0.00,,,0.00,Wunderground v.1.15,2013-06-05 21:09:00,
2013-06-05 14:14:00,92.3,15.7,29.63,WNW,293,13.0,13.0,6,0.00,,,0.00,Wunderground v.1.15,2013-06-05 21:14:00,
2013-06-05 14:19:00,91.7,15.3,29.63,WNW,283,8.0,13.0,6,0.00,,,0.00,Wunderground v.1.15,2013-06-05 21:19:00,
2013-06-05 14:24:00,92.2,15.7,29.63,West,273,6.0,17.0,6,0.00,,,0.00,Wunderground v.1.15,2013-06-05 21:24:00,
2013-06-05 14:29:00,91.8,15.4,29.63,WNW,283,9.0,17.0,6,0.00,,,0.00,Wunderground v.1.15,2013-06-05 21:29:00,
2013-06-05 14:34:00,92.2,15.7,29.63,West,280,9.0,13.0,6,0.00,,,0.00,Wunderground v.1.15,2013-06-05 21:34:00,
2013-06-05 14:39:00,92.1,15.6,29.62,NW,321,8.0,13.0,6,0.00,,,0.00,Wunderground v.1.15,2013-06-05 21:39:00,
2013-06-05 14:44:00,91.4,15.1,29.62,NNW,340,4.0,9.0,6,0.00,,,0.00,Wunderground v.1.15,2013-06-05 21:44:00,
2013-06-05 14:49:00,92.4,15.8,29.62,West,266,13.0,15.0,6,0.00,,,0.00,Wunderground v.1.15,2013-06-05 21:49:00,
2013-06-05 14:54:00,92.2,15.7,29.62,WNW,284,6.0,14.0,6,0.00,,,0.00,Wunderground v.1.15,2013-06-05 21:54:00,
2013-06-05 14:59:00,92.1,11.5,29.62,West,269,4.0,17.0,5,0.00,,,0.00,Wunderground v.1.15,2013-06-05 21:59:00,
2013-06-05 15:04:00,92.0,11.4,29.62,West,278,9.0,13.0,5,0.00,,,0.00,Wunderground v.1.15,2013-06-05 22:04:00,
2013-06-05 15:09:00,92.5,11.7,29.62,West,278,9.0,14.0,5,0.00,,,0.00,Wunderground v.1.15,2013-06-05 22:09:00,
2013-06-05 15:14:00,92.0,11.4,29.62,WNW,283,11.0,15.0,5,0.00,,,0.00,Wunderground v.1.15,2013-06-05 22:14:00,
2013-06-05 15:19:00,92.3,6.6,29.61,WNW,284,8.0,15.0,4,0.00,,,0.00,Wunderground v.1.15,2013-06-05 22:19:00,
2013-06-05 15:24:00,91.7,6.2,29.62,WNW,297,8.0,11.0,4,0.00,,,0.00,Wunderground v.1.15,2013-06-05 22:24:00,
2013-06-05 15:29:00,91.5,6.1,29.62,NW,326,3.0,14.0,4,0.00,,,0.00,Wunderground v.1.15,2013-06-05 22:29:00,
2013-06-05 15:34:00,92.1,6.5,29.61,WSW,245,9.0,14.0,4,0.00,,,0.00,Wunderground v.1.15,2013-06-05 22:34:00,
2013-06-05 15:39:00,92.5,6.8,29.61,NW,321,9.0,14.0,4,0.00,,,0.00,Wunderground v.1.15,2013-06-05 22:39:00,
2013-06-05 15:44:00,92.0,6.4,29.61,West,276,4.0,13.0,4,0.00,,,0.00,Wunderground v.1.15,2013-06-05 22:44:00,
2013-06-05 15:49:00,92.4,6.7,29.61,West,276,9.0,14.0,4,0.00,,,0.00,Wunderground v.1.15,2013-06-05 22:49:00,
2013-06-05 15:54:00,92.8,7.0,29.60,WNW,298,7.0,18.0,4,0.00,,,0.00,Wunderground v.1.15,2013-06-05 22:54:00,
2013-06-05 15:59:00,91.8,6.3,29.60,WNW,288,8.0,18.0,4,0.00,,,0.00,Wunderground v.1.15,2013-06-05 22:59:00,
2013-06-05 16:04:00,91.6,6.1,29.60,NNW,339,6.0,15.0,4,0.00,,,0.00,Wunderground v.1.15,2013-06-05 23:04:00,
2013-06-05 16:09:00,91.8,6.3,29.60,NW,309,9.0,17.0,4,0.00,,,0.00,Wunderground v.1.15,2013-06-05 23:09:00,
2013-06-05 16:14:00,91.6,6.1,29.60,NW,304,6.0,17.0,4,0.00,,,0.00,Wunderground v.1.15,2013-06-05 23:14:00,
2013-06-05 16:19:00,91.8,6.3,29.60,WNW,283,7.0,18.0,4,0.00,,,0.00,Wunderground v.1.15,2013-06-05 23:19:00,
2013-06-05 16:24:00,91.9,6.3,29.60,West,281,11.0,19.0,4,0.00,,,0.00,Wunderground v.1.15,2013-06-05 23:24:00,
2013-06-05 16:29:00,91.4,6.0,29.60,West,280,10.0,19.0,4,0.00,,,0.00,Wunderground v.1.15,2013-06-05 23:29:00,
2013-06-05 16:34:00,91.3,5.9,29.59,WNW,287,10.0,12.0,4,0.00,,,0.00,Wunderground v.1.15,2013-06-05 23:34:00,
2013-06-05 16:39:00,91.4,6.0,29.59,WNW,291,11.0,18.0,4,0.00,,,0.00,Wunderground v.1.15,2013-06-05 23:39:00,
2013-06-05 16:44:00,91.4,6.0,29.59,WNW,283,12.0,17.0,4,0.00,,,0.00,Wunderground v.1.15,2013-06-05 23:44:00,
2013-06-05 16:49:00,91.1,5.8,29.59,WNW,288,11.0,17.0,4,0.00,,,0.00,Wunderground v.1.15,2013-06-05 23:49:00,
2013-06-05 16:54:00,90.9,5.7,29.59,West,278,9.0,17.0,4,0.00,,,0.00,Wunderground v.1.15,2013-06-05 23:54:00,
2013-06-05 16:59:00,90.9,5.7,29.59,NW,307,10.0,17.0,4,0.00,,,0.00,Wunderground v.1.15,2013-06-05 23:59:00,
2013-06-05 17:04:00,90.5,5.4,29.59,NW,314,8.0,17.0,4,0.00,,,0.00,Wunderground v.1.15,2013-06-06 00:04:00,
2013-06-05 17:09:00,90.2,5.2,29.59,WNW,285,5.0,17.0,4,0.00,,,0.00,Wunderground v.1.15,2013-06-06 00:09:00,
2013-06-05 17:14:00,90.3,5.2,29.59,NW,308,11.0,15.0,4,0.00,,,0.00,Wunderground v.1.15,2013-06-06 00:14:00,
2013-06-05 17:19:00,90.1,5.1,29.59,West,281,9.0,15.0,4,0.00,,,0.00,Wunderground v.1.15,2013-06-06 00:19:00,
2013-06-05 17:24:00,90.1,10.0,29.59,WNW,292,11.0,17.0,5,0.00,,,0.00,Wunderground v.1.15,2013-06-06 00:24:00,
2013-06-05 17:29:00,90.1,10.0,29.58,WNW,293,6.0,17.0,5,0.00,,,0.00,Wunderground v.1.15,2013-06-06 00:29:00,
2013-06-05 17:34:00,90.1,10.0,29.59,WNW,282,9.0,16.0,5,0.00,,,0.00,Wunderground v.1.15,2013-06-06 00:34:00,
2013-06-05 17:39:00,89.9,5.0,29.59,NW,309,11.0,16.0,4,0.00,,,0.00,Wunderground v.1.15,2013-06-06 00:39:00,
2013-06-05 17:44:00,89.4,9.6,29.59,West,277,6.0,14.0,5,0.00,,,0.00,Wunderground v.1.15,2013-06-06 00:44:00,
2013-06-05 17:49:00,89.3,9.5,29.59,NW,315,9.0,16.0,5,0.00,,,0.00,Wunderground v.1.15,2013-06-06 00:49:00,
2013-06-05 17:54:00,89.4,9.6,29.59,WNW,292,7.0,12.0,5,0.00,,,0.00,Wunderground v.1.15,2013-06-06 00:54:00,
2013-06-05 17:59:00,89.0,9.3,29.58,WNW,298,7.0,16.0,5,0.00,,,0.00,Wunderground v.1.15,2013-06-06 00:59:00,
2013-06-05 18:04:00,88.8,9.1,29.59,NW,306,8.0,15.0,5,0.00,,,0.00,Wunderground v.1.15,2013-06-06 01:04:00,
2013-06-05 18:09:00,88.8,9.1,29.59,NW,326,9.0,18.0,5,0.00,,,0.00,Wunderground v.1.15,2013-06-06 01:09:00,
2013-06-05 18:14:00,88.5,8.9,29.59,West,281,15.0,15.0,5,0.00,,,0.00,Wunderground v.1.15,2013-06-06 01:14:00,
2013-06-05 18:19:00,88.0,8.6,29.59,WNW,301,14.0,17.0,5,0.00,,,0.00,Wunderground v.1.15,2013-06-06 01:19:00,
2013-06-05 18:24:00,87.9,8.5,29.59,West,278,14.0,14.0,5,0.00,,,0.00,Wunderground v.1.15,2013-06-06 01:24:00,
2013-06-05 18:29:00,87.7,8.4,29.60,WNW,283,11.0,14.0,5,0.00,,,0.00,Wunderground v.1.15,2013-06-06 01:29:00,
2013-06-05 18:34:00,87.5,8.2,29.60,West,274,7.0,15.0,5,0.00,,,0.00,Wunderground v.1.15,2013-06-06 01:34:00,
2013-06-05 18:39:00,87.3,8.1,29.60,WNW,297,12.0,15.0,5,0.00,,,0.00,Wunderground v.1.15,2013-06-06 01:39:00,
2013-06-05 18:44:00,87.0,7.9,29.60,WNW,298,8.0,12.0,5,0.00,,,0.00,Wunderground v.1.15,2013-06-06 01:44:00,
2013-06-05 18:49:00,86.7,11.7,29.60,NW,307,12.0,15.0,6,0.00,,,0.00,Wunderground v.1.15,2013-06-06 01:49:00,
2013-06-05 18:54:00,86.3,11.4,29.60,WNW,297,8.0,12.0,6,0.00,,,0.00,Wunderground v.1.15,2013-06-06 01:54:00,
2013-06-05 18:59:00,85.8,11.1,29.60,WNW,289,7.0,12.0,6,0.00,,,0.00,Wunderground v.1.15,2013-06-06 01:59:00,
2013-06-05 19:05:00,85.5,10.9,29.60,WNW,288,5.0,11.0,6,0.00,,,0.00,Wunderground v.1.15,2013-06-06 02:05:00,
2013-06-05 19:10:00,84.9,10.4,29.60,NW,309,4.0,12.0,6,0.00,,,0.00,Wunderground v.1.15,2013-06-06 02:10:00,
2013-06-05 19:15:00,84.3,10.0,29.60,West,273,8.0,10.0,6,0.00,,,0.00,Wunderground v.1.15,2013-06-06 02:15:00,
2013-06-05 19:19:00,83.7,9.6,29.61,NW,311,5.0,10.0,6,0.00,,,0.00,Wunderground v.1.15,2013-06-06 02:19:00,
2013-06-05 19:24:00,83.2,12.7,29.61,WNW,289,4.0,11.0,7,0.00,,,0.00,Wunderground v.1.15,2013-06-06 02:24:00,
2013-06-05 19:29:00,82.4,12.1,29.61,WNW,297,5.0,11.0,7,0.00,,,0.00,Wunderground v.1.15,2013-06-06 02:29:00,
2013-06-05 19:34:00,81.6,11.5,29.61,WNW,299,2.0,5.0,7,0.00,,,0.00,Wunderground v.1.15,2013-06-06 02:34:00,
2013-06-05 19:39:00,80.8,14.0,29.61,WNW,303,3.0,5.0,8,0.00,,,0.00,Wunderground v.1.15,2013-06-06 02:39:00,
2013-06-05 19:45:00,80.0,13.4,29.62,WNW,295,3.0,4.0,8,0.00,,,0.00,Wunderground v.1.15,2013-06-06 02:45:00,
2013-06-05 19:50:00,79.3,12.8,29.62,NW,313,2.0,4.0,8,0.00,,,0.00,Wunderground v.1.15,2013-06-06 02:50:00,
2013-06-05 19:54:00,78.7,12.4,29.62,NW,323,2.0,3.0,8,0.00,,,0.00,Wunderground v.1.15,2013-06-06 02:54:00,
2013-06-05 19:59:00,78.2,14.7,29.62,NW,323,1.0,3.0,9,0.00,,,0.00,Wunderground v.1.15,2013-06-06 02:59:00,
2013-06-05 20:04:00,77.7,14.3,29.62,NW,320,1.0,2.0,9,0.00,,,0.00,Wunderground v.1.15,2013-06-06 03:04:00,
2013-06-05 20:09:00,77.3,14.0,29.62,NNW,334,1.0,2.0,9,0.00,,,0.00,Wunderground v.1.15,2013-06-06 03:09:00,
2013-06-05 20:14:00,76.8,13.6,29.62,NNW,328,1.0,2.0,9,0.00,,,0.00,Wunderground v.1.15,2013-06-06 03:14:00,
2013-06-05 20:19:00,76.3,13.3,29.63,NNW,335,0.0,2.0,9,0.00,,,0.00,Wunderground v.1.15,2013-06-06 03:19:00,
2013-06-05 20:24:00,75.7,15.2,29.63,North,351,1.0,1.0,10,0.00,,,0.00,Wunderground v.1.15,2013-06-06 03:24:00,
2013-06-05 20:29:00,75.3,14.9,29.63,North,351,1.0,1.0,10,0.00,,,0.00,Wunderground v.1.15,2013-06-06 03:29:00,
2013-06-05 20:34:00,74.9,14.6,29.63,North,354,2.0,2.0,10,0.00,,,0.00,Wunderground v.1.15,2013-06-06 03:34:00,
2013-06-05 20:39:00,74.6,14.4,29.64,North,356,1.0,2.0,10,0.00,,,0.00,Wunderground v.1.15,2013-06-06 03:39:00,
2013-06-05 20:44:00,74.2,14.1,29.64,North,358,0.0,1.0,10,0.00,,,0.00,Wunderground v.1.15,2013-06-06 03:44:00,
2013-06-05 20:49:00,73.8,15.9,29.64,North,360,0.0,1.0,11,0.00,,,0.00,Wunderground v.1.15,2013-06-06 03:49:00,
2013-06-05 20:54:00,73.5,15.7,29.64,North,351,0.0,0.0,11,0.00,,,0.00,Wunderground v.1.15,2013-06-06 03:54:00,
2013-06-05 20:59:00,73.1,15.4,29.65,NNE,14,0.0,0.0,11,0.00,,,0.00,Wunderground v.1.15,2013-06-06 03:59:00,
2013-06-05 21:01:00,73.1,15.4,29.64,NNE,14,0.0,0.0,11,0.00,,,0.00,Wunderground v.1.15,2013-06-06 04:01:00,
2013-06-05 21:06:00,72.8,15.2,29.65,NNE,20,0.0,0.0,11,0.00,,,0.00,Wunderground v.1.15,2013-06-06 04:06:00,
2013-06-05 21:11:00,72.1,14.6,29.65,NNE,30,2.0,3.0,11,0.00,,,0.00,Wunderground v.1.15,2013-06-06 04:11:00,
2013-06-05 21:16:00,71.7,14.3,29.65,NNE,25,1.0,3.0,11,0.00,,,0.00,Wunderground v.1.15,2013-06-06 04:16:00,
2013-06-05 21:21:00,71.5,14.2,29.65,NNE,33,1.0,2.0,11,0.00,,,0.00,Wunderground v.1.15,2013-06-06 04:21:00,
2013-06-05 21:26:00,71.4,14.1,29.66,NNE,33,0.0,2.0,11,0.00,,,0.00,Wunderground v.1.15,2013-06-06 04:26:00,
2013-06-05 21:31:00,71.2,13.9,29.66,North,11,3.0,3.0,11,0.00,,,0.00,Wunderground v.1.15,2013-06-06 04:31:00,
2013-06-05 21:36:00,71.2,13.9,29.66,NNE,24,2.0,3.0,11,0.00,,,0.00,Wunderground v.1.15,2013-06-06 04:36:00,
2013-06-05 21:41:00,71.1,15.9,29.66,NNE,32,2.0,2.0,12,0.00,,,0.00,Wunderground v.1.15,2013-06-06 04:41:00,
2013-06-05 21:46:00,70.8,15.6,29.66,NNE,31,0.0,2.0,12,0.00,,,0.00,Wunderground v.1.15,2013-06-06 04:46:00,
2013-06-05 21:51:00,70.7,15.5,29.66,NNE,20,2.0,2.0,12,0.00,,,0.00,Wunderground v.1.15,2013-06-06 04:51:00,
2013-06-05 21:56:00,70.9,15.7,29.66,NNE,23,2.0,3.0,12,0.00,,,0.00,Wunderground v.1.15,2013-06-06 04:56:00,
2013-06-05 22:01:00,70.7,15.5,29.66,NNE,12,3.0,3.0,12,0.00,,,0.00,Wunderground v.1.15,2013-06-06 05:01:00,
2013-06-05 22:06:00,70.4,15.3,29.66,NNE,25,2.0,3.0,12,0.00,,,0.00,Wunderground v.1.15,2013-06-06 05:06:00,
2013-06-05 22:11:00,70.3,15.2,29.66,NE,37,2.0,4.0,12,0.00,,,0.00,Wunderground v.1.15,2013-06-06 05:11:00,
2013-06-05 22:17:00,70.4,15.3,29.66,NNE,22,3.0,5.0,12,0.00,,,0.00,Wunderground v.1.15,2013-06-06 05:17:00,
2013-06-05 22:21:00,70.7,15.5,29.66,NE,34,2.0,3.0,12,0.00,,,0.00,Wunderground v.1.15,2013-06-06 05:21:00,
2013-06-05 22:26:00,71.2,15.9,29.66,NNE,13,2.0,4.0,12,0.00,,,0.00,Wunderground v.1.15,2013-06-06 05:26:00,
2013-06-05 22:31:00,71.6,16.2,29.66,NNE,32,3.0,5.0,12,0.00,,,0.00,Wunderground v.1.15,2013-06-06 05:31:00,
2013-06-05 22:37:00,71.8,16.4,29.66,NNE,16,3.0,5.0,12,0.00,,,0.00,Wunderground v.1.15,2013-06-06 05:37:00,
2013-06-05 22:42:00,72.0,16.6,29.66,NNE,23,2.0,4.0,12,0.00,,,0.00,Wunderground v.1.15,2013-06-06 05:42:00,
2013-06-05 22:47:00,72.1,16.6,29.66,NNE,27,2.0,4.0,12,0.00,,,0.00,Wunderground v.1.15,2013-06-06 05:47:00,
2013-06-05 22:52:00,72.1,16.6,29.66,NNE,23,3.0,4.0,12,0.00,,,0.00,Wunderground v.1.15,2013-06-06 05:52:00,
2013-06-05 22:57:00,71.9,16.5,29.66,NNE,32,2.0,4.0,12,0.00,,,0.00,Wunderground v.1.15,2013-06-06 05:57:00,
2013-06-05 23:02:00,71.6,16.2,29.66,NE,35,2.0,3.0,12,0.00,,,0.00,Wunderground v.1.15,2013-06-06 06:02:00,
2013-06-05 23:07:00,71.4,16.1,29.66,NE,38,2.0,3.0,12,0.00,,,0.00,Wunderground v.1.15,2013-06-06 06:07:00,
2013-06-05 23:12:00,71.3,16.0,29.66,NE,38,2.0,3.0,12,0.00,,,0.00,Wunderground v.1.15,2013-06-06 06:12:00,
2013-06-05 23:17:00,71.1,15.9,29.67,NE,38,2.0,3.0,12,0.00,,,0.00,Wunderground v.1.15,2013-06-06 06:17:00,
2013-06-05 23:22:00,71.0,15.8,29.66,NNE,32,1.0,4.0,12,0.00,,,0.00,Wunderground v.1.15,2013-06-06 06:22:00,
2013-06-05 23:27:00,70.8,15.6,29.67,NNE,33,2.0,4.0,12,0.00,,,0.00,Wunderground v.1.15,2013-06-06 06:27:00,
2013-06-05 23:32:00,70.5,15.4,29.67,NNE,33,0.0,2.0,12,0.00,,,0.00,Wunderground v.1.15,2013-06-06 06:32:00,
2013-06-05 23:37:00,70.4,17.2,29.67,NNE,33,1.0,2.0,13,0.00,,,0.00,Wunderground v.1.15,2013-06-06 06:37:00,
2013-06-05 23:42:00,70.8,15.6,29.67,NNE,33,0.0,1.0,12,0.00,,,0.00,Wunderground v.1.15,2013-06-06 06:42:00,
2013-06-05 23:47:00,70.6,17.3,29.66,NNE,32,0.0,1.0,13,0.00,,,0.00,Wunderground v.1.15,2013-06-06 06:47:00,
2013-06-05 23:52:00,70.3,17.1,29.66,NNE,33,0.0,0.0,13,0.00,,,0.00,Wunderground v.1.15,2013-06-06 06:52:00,
2013-06-05 23:57:00,69.7,16.6,29.66,NNE,33,0.0,0.0,13,0.00,,,0.00,Wunderground v.1.15,2013-06-06 06:57:00,